Regional Weather Roundup
Issued by NWS

Home | Current Version | Previous Version | Graphics & Text | Print | Product List | Glossary On
Versions: 1 2 3 4 5 6 7 8 9 10 11 12 13 14 15 16 17 18 19 20 21 22 23 24 25 26 27 28 29 30 31 32 33 34 35 36 37 38 39 40 41 42 43 44 45 46 47 48 49 50
000
ASUS43 KMKX 030621
RWRWI

WISCONSIN REGIONAL WEATHER ROUNDUP
NATIONAL WEATHER SERVICE MILWAUKEE/SULLIVAN WI
100 AM CDT MON AUG 03 2015

NOTE: "FAIR" INDICATES FEW OR NO CLOUDS BELOW 12,000 FEET WITH NO
SIGNIFICANT WEATHER AND/OR OBSTRUCTIONS TO VISIBILITY.

WIZ001-002-006>008-014>016-023>028-030700-
NORTHWEST WISCONSIN

CITY           SKY/WX    TMP DP  RH WIND       PRES   REMARKS
SUPERIOR ARPT  PTCLDY    61  48  63 W6        29.78R
6HR MIN TEMP:  61; 6HR MAX TEMP:  73;

ASHLAND        CLOUDY    59  51  75 SW5       29.77R
6HR MIN TEMP:  55; 6HR MAX TEMP:  72;

HAYWARD        CLOUDY    62  47  57 CALM      29.81R
6HR MIN TEMP:  56; 6HR MAX TEMP:  75;

SIREN          CLEAR     57  48  72 W6        29.83S
6HR MIN TEMP:  57; 6HR MAX TEMP:  75;

CUMBERLAND     CLEAR     55  46  71 W8        29.83R
RICE LAKE      CLEAR     56  48  73 W3        29.84R
6HR MIN TEMP:  56; 6HR MAX TEMP:  75;

CHETEK         CLEAR     60  49  65 W5        29.83R
6HR MIN TEMP:  58; 6HR MAX TEMP:  76;

LADYSMITH      PTCLDY    59  50  73 W5        29.83R
6HR MIN TEMP:  58; 6HR MAX TEMP:  76;

EAU CLAIRE     CLEAR     62  49  62 NW5       29.82R
6HR MIN TEMP:  62; 6HR MAX TEMP:  79;

MENOMONIE      CLEAR     62  51  66 W6        29.84R
6HR MIN TEMP:  62; 6HR MAX TEMP:  80;

NEW RICHMOND   CLEAR     58  51  77 W3        29.86R
6HR MIN TEMP:  58; 6HR MAX TEMP:  76;

OSCEOLA        CLEAR     59  52  77 W6        29.87R
6HR MIN TEMP:  56; 6HR MAX TEMP:  77;

$$

WIZ003>005-009-010-017-018-030700-
NORTH CENTRAL WISCONSIN

CITY           SKY/WX    TMP DP  RH WIND       PRES   REMARKS
MANITOWISH WTR MOCLDY    55  51  89 CALM      29.77R
6HR MIN TEMP:  52; 6HR MAX TEMP:  67;

ARBOR VITAE    MOCLDY    59  53  78 CALM      29.78R
6HR MIN TEMP:  57; 6HR MAX TEMP:  65;

WOODRUFF       MOCLDY    59  53  78 CALM      29.78R
6HR MIN TEMP:  57; 6HR MAX TEMP:  65;

RHINELANDER    PTCLDY    54  52  93 W8        29.78R
6HR MIN TEMP:  54; 6HR MAX TEMP:  72; 6HR PCP:  0.08;

EAGLE RIVER    PTCLDY    56  50  80 W5        29.75R
6HR MIN TEMP:  55; 6HR MAX TEMP:  70;

LAND O LAKES   MOCLDY    58  50  76 NW5       29.76R
6HR MIN TEMP:  57; 6HR MAX TEMP:  69; 6HR PCP:  0.01;

PHILLIPS       MOCLDY    57  52  82 CALM      29.78R
6HR MIN TEMP:  56; 6HR MAX TEMP:  71;

TOMAHAWK       PTCLDY    53  50  90 W3        29.79R
6HR MIN TEMP:  52; 6HR MAX TEMP:  71;

MEDFORD        CLEAR     58  52  80 W6        29.81R
6HR MIN TEMP:  58; 6HR MAX TEMP:  74;

MERRILL        NOT AVBL
$$

WIZ029-030-035-036-043>047-030700-
CENTRAL WISCONSIN

CITY           SKY/WX    TMP DP  RH WIND       PRES   REMARKS
WAUSAU         PTCLDY    62  55  77 W6        29.77R
6HR MIN TEMP:  62; 6HR MAX TEMP:  77;

MOSINEE        PTCLDY    61  54  77 NW7       29.79R
MARSHFIELD     PTCLDY    62  55  77 W6        29.80R
6HR MIN TEMP:  61; 6HR MAX TEMP:  77;

STEVENS POINT  MOCLDY    63  55  74 NW3       29.79R
6HR MIN TEMP:  62; 6HR MAX TEMP:  75;

WAUPACA        PTCLDY    67  57  69 W5        29.76R
6HR MIN TEMP:  67; 6HR MAX TEMP:  78;

WAUTOMA        PTCLDY    65  58  78 NW5       29.77R
6HR MIN TEMP:  65; 6HR MAX TEMP:  81;

WISC RAPIDS    PTCLDY    63  56  78 NW3       29.80R
6HR MIN TEMP:  62; 6HR MAX TEMP:  80;

CAMP DOUGLAS   CLEAR     62  62  97 NW7       29.79R
6HR MIN TEMP:  62; 6HR MAX TEMP:  80;

$$

WIZ011>013-019>022-031-037>040-048>050-030700-
NORTHEAST WISCONSIN

CITY           SKY/WX    TMP DP  RH WIND       PRES   REMARKS
ANTIGO         CLEAR     58  56  94 W8        29.78R
SHAWANO        CLEAR     64  59  86 W6        29.74R
6HR MIN TEMP:  64; 6HR MAX TEMP:  71; 6HR PCP:  0.01;

OCONTO         CLEAR     58  58 100 CALM      29.71R
6HR MIN TEMP:  58; 6HR MAX TEMP:  67;

STURGEON BAY   CLEAR     63  57  82 W5        29.73R
6HR MIN TEMP:  61; 6HR MAX TEMP:  64;

GREEN BAY      MOCLDY    64  62  93 W7        29.73R
6HR MIN TEMP:  63; 6HR MAX TEMP:  69;

MANITOWOC      PTCLDY    64  60  87 MISG      29.72R
6HR MIN TEMP:  64; 6HR MAX TEMP:  69;

APPLETON       MOCLDY    63  61  94 W9        29.75R
CLINTONVILLE   PTCLDY    63  55  77 NW7       29.74R
OSHKOSH        PTCLDY    66  62  87 NW5       29.74R
6HR MIN TEMP:  65; 6HR MAX TEMP:  73; 6HR PCP: TRACE;

$$

WIZ032>034-041-042-053>061-030700-
SOUTHWEST WISCONSIN

CITY           SKY/WX    TMP DP  RH WIND       PRES   REMARKS
LA CROSSE      PTCLDY    71  52  50 N13       29.82R
6HR MIN TEMP:  71; 6HR MAX TEMP:  84;

SPARTA         CLEAR     68  52  56 NW9       29.82R
6HR MIN TEMP:  68; 6HR MAX TEMP:  82;

VIROQUA        CLEAR     67  57  69 N9G17     29.82R
6HR MIN TEMP:  67; 6HR MAX TEMP:  81;

BOSCOBEL       PTCLDY    74  61  63 N5        29.79R
6HR MIN TEMP:  68; 6HR MAX TEMP:  88;

PRAIRIE DU CHI CLEAR     73  57  57 NW9G16    29.80R
6HR MIN TEMP:  73; 6HR MAX TEMP:  87;

PLATTEVILLE    CLEAR     71  63  75 NW7       29.80R
6HR MIN TEMP:  71; 6HR MAX TEMP:  86;

$$

WIZ056-057-062-063-064-067-068-030700-
SOUTH CENTRAL WISCONSIN

CITY           SKY/WX    TMP DP  RH WIND       PRES   REMARKS
REEDSBURG      CLEAR     69  58  68 NW3       29.77R
6HR MIN TEMP:  69; 6HR MAX TEMP:  85;

BARABOO/DELLS  CLEAR     71  55  58 NW6       29.77R
6HR MIN TEMP:  71; 6HR MAX TEMP:  85;

LONE ROCK      MOCLDY    74  59  59 NW7G17    29.78R
6HR MIN TEMP:  73; 6HR MAX TEMP:  88;

MINERAL POINT  PTCLDY    70  63  78 W5        29.80R
MADISON        CLEAR     71  59  65 NW6       29.75R
6HR MIN TEMP:  71; 6HR MAX TEMP:  88;

MIDDLETON      CLEAR     67  60  78 NW3       29.77R
6HR MIN TEMP:  67; 6HR MAX TEMP:  88;

WATERTOWN      CLEAR     62  62 100 CALM      29.74R
6HR MIN TEMP:  62; 6HR MAX TEMP:  87;

MONROE         CLEAR     72  61  68 NW8       29.78R
JANESVILLE     CLEAR     68  64  88 CALM      29.75R
$$

WIZ051-052-058>065-066-070>072-030700-
SOUTHEAST WISCONSIN

CITY           SKY/WX    TMP DP  RH WIND       PRES   REMARKS
MILWAUKEE      PTCLDY    68  59  73 SW5       29.74R
6HR MIN TEMP:  65; 6HR MAX TEMP:  88; 6HR PCP:  0.46;

WAUKESHA       CLEAR     63  55  77 CALM      29.76R
MILWAUKEE/TIMM CLEAR     64  55  72 CALM      29.75R
RACINE         MOCLDY    66  62  87 CALM      29.75R
6HR MIN TEMP:  66; 6HR MAX TEMP:  88; 6HR PCP:  0.90;

BURLINGTON     CLEAR     61  58  91 SW5       29.75R
6HR MIN TEMP:  61; 6HR MAX TEMP:  85;

KENOSHA        PTCLDY    64  62  93 W3        29.74R
6HR MIN TEMP:  63; 6HR MAX TEMP:  87; 6HR PCP:  1.01;

FOND DU LAC    CLEAR     65  62  90 W6        29.74R
6HR MIN TEMP:  64; 6HR MAX TEMP:  73;

SHEBOYGAN      MOCLDY    64  60  87 MISG      29.72R
6HR MIN TEMP:  62; 6HR MAX TEMP:  69; 6HR PCP:  0.01;

WEST BEND      PTCLDY    63  59  88 CALM      29.75R
JUNEAU         PTCLDY    67  60  78 NW8       29.76R
6HR MIN TEMP:  63; 6HR MAX TEMP:  79;

$$

LSZ147-162-030700-
LAKE SUPERIOR

STATION/POSITION TIME  TEMP    WIND        PRES    WAVE
                       AIR SEA DIR/SP/G            HT/PER
                 (UTC) (F)     (DEG/KT/KT) (MB)    (FT/S)
W MID LAKE BUOY  0550   59 56  290/ 12/ 14 1005.8R   1/ 3
DEVILS ISLAND    0600   62     280/ 10/ 11 1007.3R
PORT WING        0500   64     250/  7/ 10 1007.8
SAXON HARBOR     0500   66                 1006.8R
$$

LMZ867-665-643>646-030700-
LAKE MICHIGAN

STATION/POSITION TIME  TEMP    WIND        PRES    WAVE
                       AIR SEA DIR/SP/G            HT/PER


USA.gov is the U.S. government's official web portal to all federal, state and local government web resources and services.